CZ-4 DEB

Satellite information

Favourite Embed

Satellite Type and Status

DEBRISIN ORBIT

Key statistics

Satellite CZ-4 DEB at a glance.

Uptime

9399

Days in orbit

Revolutions

≈ 14.8

Per day

Orbit

SSO

Sun Synchronous Orbit

Inclination

98.3

Latest

Satellite identification and parameters

Extended collection of information and parameters for CZ-4 DEB.

Object identification

Identified? True

Debris? True

Object name: CZ-4 DEB

International designator: 1999-057RY

Object number (NORAD): 35320

Object ID (CCSDS): 35320

Country: PEOPLES REPUBLIC OF CHINA (PRC)

Current information (Y/N): Y

RCS size: SMALL

Orbital parameters

Period: 97.303 minutes

Inclination: 98.2895 deg

SMA: 7007.721 km

Apoapsis: 630.49 km

Periapsis: 628.682 km

RAAN: 195.6454 deg

Eccentricy: 0.000129

Argument of periapsis: 116.9579 deg

Mean anomaly: 243.1764 deg

Mean motion: 14.79917794 rev/day

Mean motion (dot): 0.00003117 rev/day2

B* drag term: 0.00042019 1/REarth

Two-line elements (TLE)

Creation date: July 6, 2025, 6:46 a.m.

Reference frame: TEME

Reference center: EARTH

Epoch: July 6, 2025, 5:43 a.m. UTC

TLE line 0: 0 CZ-4 DEB

TLE line 1: 1 35320U 99057RY 25187.23872191 .00003117 00000-0 42019-3 0 9990

TLE line 2: 2 35320 98.2895 195.6454 0001290 116.9579 243.1764 14.79917794996278

Live tracking on map

Real-time ground track for satellite CZ-4 DEB.

In-orbit conjunctions

A list of the most updated potential collisions computed for object CZ-4 DEB.

Target Orbit TCA Probability of collision Miss distance Type
SL-24 DEB SSO 2025-03-15 02:02:20 0.0002035104 357.0 (m) DEBRIS
SL-14 R/B LEO 2025-02-15 19:45:18 0.0001074494 501.0 (m) ROCKET BODY

Associated space launch

The CBERS (China Brazil Earth Resources Satellite) or ZY 1 (Zi Yuan) satellites are designed for global coverage and include cameras to make optical observations and a data collecting system to gather data on the environment. They are unique systems due to the use of on-board sensors which combine features that are especially designed to resolve the broad range of space and time scales involved in the monitoring and preservation of the ecosystem. They are operated jointly by the China Centre for Resources Satellite Data and Application (CRESDA) and the Brazilian INPE (Instituto Nacional de Pesquisas Espaciais, National Institute of Space Research).

CZ-4 DEB was lifted into orbit during the mission ‘Long March 4B | Zi Yuan 1-1’, on board a Long March 4B space rocket.

The launch took place on Oct. 14, 1999, 3:15 a.m. from Launch Complex 7.

For more information about the launch, click the button.

Launch to space Long March 4B | Zi Yuan 1-1
Long March 4B | Zi Yuan 1-1

Agency: N/A

Status: Launch Successful

Launch date: Oct. 14, 1999, 3:15 a.m. UTC

Rocket: Long March 4B

Launch pad: Launch Complex 7

Location: Taiyuan Satellite Launch Center, People's Republic of China

...

Latest news about this satellite

There are no fresh news available about this satellite. Check back as we update our databases every day.


Newsletter sign-up

Weekly statistics, charts and insights to help you stay on top of the space industry.